Hawk 3C

operational
NORAD ID: 48948 Int'l Des: 2021-059 Owner: HE360 Country: US
LEOCIRCULARRETROGRADE

Hawk 3Cについて

説明を読み込み中...

リアルタイム位置

3D地球を読み込み中...

次回通過

高度履歴

Altitude vs Time

uPlot chart will show altitude changes over time

軌道要素

1 48948U 21059BX 26063.48659033 .00052362 00000-0 61963-3 0 9991
2 48948 97.6858 256.4294 0005886 358.7379 1.3862 15.61098342261478
Epoch: Mar 4, 2026 • Age: 21 hours

現在のステータス

高度 401.5 km
速度 7.67 km/s
衛星直下点 -50.76°S, 153.33°E
打ち上げ日 Jun 30, 2021
運用期間 4.6 years
タイプ other

技術仕様

分類 Payload
質量 31.00 kg
乾燥質量 30.00 kg
総質量 31.00 kg
長さ 0.50 m
直径 0.40 m
スパン 1.00 m
形状 Box + 2 pan
製造者 UTIAS
バスタイプ Defiant
フェーズステータス In Orbit
所有者/国 HE360/US

大規模コンステレーション

Loading constellations...